When you browse on this site, cookies collect data to enhance your experience and personalize the content and advertising you see.
Visit our Privacy Policy to learn more. By continuing to use the site, you agree to this use of cookies and data.
  • In Romania
  • List of Countries
  • For 7 days
  • Water Temperature
  • Weather Map
  • Weather Widgets
  • user-avatar
    Login

    Hourly Weather Natanja

    Today, 5 April, Sunday

    Time Temperature Precipitation Wind Pressure Humidity
    00:00 +24°C° 0 mm 9 mps 753 mmHg 35%
    01:00 +24°C° 0 mm 10 mps 753 mmHg 34%
    02:00 +24°C° 0 mm 10 mps 752 mmHg 33%
    03:00 +23°C° 0 mm 9 mps 752 mmHg 33%
    04:00 +23°C° 0 mm 9 mps 752 mmHg 34%
    05:00 +23°C° 0 mm 8 mps 752 mmHg 34%
    06:00 +24°C° 0 mm 8 mps 752 mmHg 34%
    07:00 +24°C° 0 mm 8 mps 752 mmHg 35%
    08:00 +26°C° 0 mm 7 mps 752 mmHg 37%
    09:00 +27°C° 0 mm 7 mps 752 mmHg 35%
    10:00 +29°C° 0 mm 6 mps 752 mmHg 33%
    11:00 +30°C° 0 mm 5 mps 753 mmHg 32%
    12:00 +28°C° 0 mm 5 mps 753 mmHg 39%
    13:00 +26°C° 0 mm 6 mps 753 mmHg 47%
    14:00 +23°C° 0 mm 7 mps 753 mmHg 54%
    15:00 +22°C° 0 mm 5 mps 753 mmHg 60%
    16:00 +21°C° 0 mm 4 mps 754 mmHg 66%
    17:00 +20°C° 0 mm 2 mps 754 mmHg 71%
    18:00 +19°C° 0 mm 2 mps 754 mmHg 76%
    19:00 +19°C° 0 mm 2 mps 755 mmHg 80%
    20:00 +19°C° 0 mm 1 mps 755 mmHg 84%
    21:00 +18°C° 0 mm 1 mps 755 mmHg 85%
    22:00 +17°C° 0 mm 2 mps 756 mmHg 87%
    23:00 +17°C° 0 mm 2 mps 756 mmHg 88%

    Tomorrow, 6 April, Monday

    Time Temperature Precipitation Wind Pressure Humidity
    00:00 +17°C° 0 mm 2 mps 756 mmHg 88%
    01:00 +17°C° 0 mm 2 mps 756 mmHg 88%
    02:00 +17°C° 0 mm 2 mps 756 mmHg 88%
    03:00 +17°C° 0 mm 2 mps 755 mmHg 88%
    04:00 +17°C° 0 mm 2 mps 755 mmHg 88%
    05:00 +17°C° 0 mm 2 mps 755 mmHg 88%
    06:00 +17°C° 0 mm 2 mps 756 mmHg 84%
    07:00 +18°C° 0 mm 2 mps 756 mmHg 80%
    08:00 +19°C° 0 mm 2 mps 756 mmHg 76%
    09:00 +19°C° 0 mm 2 mps 757 mmHg 72%
    10:00 +20°C° 0 mm 2 mps 757 mmHg 69%
    11:00 +20°C° 0 mm 3 mps 757 mmHg 65%
    12:00 +20°C° 0 mm 3 mps 756 mmHg 65%
    13:00 +20°C° 0 mm 4 mps 756 mmHg 65%
    14:00 +20°C° 0 mm 4 mps 756 mmHg 65%
    15:00 +20°C° 0 mm 4 mps 756 mmHg 69%
    16:00 +19°C° 0 mm 5 mps 756 mmHg 73%
    17:00 +19°C° 0 mm 5 mps 755 mmHg 77%
    18:00 +18°C° 0 mm 4 mps 756 mmHg 80%
    19:00 +17°C° 0 mm 3 mps 756 mmHg 83%
    20:00 +17°C° 0 mm 3 mps 757 mmHg 86%
    21:00 +17°C° 0 mm 2 mps 757 mmHg 86%
    22:00 +16°C° 0 mm 2 mps 757 mmHg 86%
    23:00 +16°C° 0 mm 2 mps 757 mmHg 86%

    Day after tomorrow, 7 April, Tuesday

    Time Temperature Precipitation Wind Pressure Humidity
    00:00 +16°C° 0 mm 2 mps 756 mmHg 87%
    01:00 +16°C° 0 mm 2 mps 756 mmHg 87%
    02:00 +15°C° 0 mm 2 mps 756 mmHg 88%
    03:00 +16°C° 0 mm 2 mps 756 mmHg 86%
    04:00 +16°C° 0 mm 2 mps 756 mmHg 85%
    05:00 +16°C° 0 mm 2 mps 756 mmHg 84%
    06:00 +16°C° 0 mm 2 mps 756 mmHg 80%
    07:00 +17°C° 0 mm 2 mps 756 mmHg 76%
    08:00 +17°C° 0 mm 2 mps 756 mmHg 72%
    09:00 +18°C° 0 mm 2 mps 756 mmHg 68%
    10:00 +18°C° 0 mm 2 mps 756 mmHg 65%
    11:00 +19°C° 0 mm 3 mps 756 mmHg 62%
    12:00 +19°C° 0 mm 3 mps 756 mmHg 61%
    13:00 +19°C° 0 mm 3 mps 755 mmHg 60%
    14:00 +19°C° 0 mm 4 mps 755 mmHg 59%
    15:00 +19°C° 0 mm 4 mps 755 mmHg 61%
    16:00 +18°C° 0 mm 4 mps 755 mmHg 63%
    17:00 +18°C° 0 mm 4 mps 755 mmHg 65%
    18:00 +17°C° 0 mm 3 mps 755 mmHg 68%
    19:00 +16°C° 0 mm 3 mps 755 mmHg 70%
    20:00 +16°C° 0 mm 2 mps 756 mmHg 73%
    21:00 +15°C° 0 mm 2 mps 756 mmHg 74%
    22:00 +15°C° 0 mm 2 mps 756 mmHg 74%
    23:00 +15°C° 0 mm 2 mps 756 mmHg 75%

    8 April, Wednesday

    Time Temperature Precipitation Wind Pressure Humidity
    00:00 +15°C° 0 mm 1 mps 756 mmHg 73%
    01:00 +15°C° 0 mm 1 mps 756 mmHg 72%
    02:00 +15°C° 0 mm 1 mps 755 mmHg 71%
    03:00 +15°C° 0 mm 1 mps 755 mmHg 70%
    04:00 +15°C° 0 mm 1 mps 756 mmHg 69%
    05:00 +15°C° 0 mm 1 mps 756 mmHg 68%
    06:00 +16°C° 0 mm 1 mps 756 mmHg 65%
    07:00 +16°C° 0 mm 1 mps 756 mmHg 63%
    08:00 +18°C° 0 mm 1 mps 756 mmHg 61%
    09:00 +17°C° 0 mm 2 mps 756 mmHg 59%
    10:00 +18°C° 0 mm 2 mps 755 mmHg 56%
    11:00 +19°C° 0 mm 3 mps 755 mmHg 54%
    12:00 +19°C° 0 mm 3 mps 755 mmHg 56%
    13:00 +19°C° 0 mm 3 mps 755 mmHg 58%
    14:00 +19°C° 0 mm 4 mps 754 mmHg 60%
    15:00 +18°C° 0 mm 4 mps 754 mmHg 62%
    16:00 +18°C° 0 mm 4 mps 754 mmHg 65%
    17:00 +18°C° 0 mm 4 mps 754 mmHg 68%
    18:00 +17°C° 0 mm 3 mps 754 mmHg 71%
    19:00 +16°C° 0 mm 3 mps 754 mmHg 75%
    20:00 +16°C° 0 mm 3 mps 754 mmHg 79%
    21:00 +16°C° 0 mm 2 mps 754 mmHg 80%
    22:00 +15°C° 0 mm 1 mps 754 mmHg 81%
    23:00 +15°C° 0 mm 1 mps 754 mmHg 82%

    9 April, Thursday

    Time Temperature Precipitation Wind Pressure Humidity
    00:00 +15°C° 0 mm 1 mps 754 mmHg 81%
    01:00 +15°C° 0 mm 1 mps 754 mmHg 80%
    02:00 +15°C° 0 mm 1 mps 754 mmHg 79%
    03:00 +15°C° 0 mm 2 mps 754 mmHg 80%
    04:00 +15°C° 0 mm 2 mps 754 mmHg 81%
    05:00 +15°C° 0 mm 2 mps 754 mmHg 82%
    06:00 +14°C° 0.1 mm 3 mps 754 mmHg 79%
    07:00 +16°C° 0.1 mm 3 mps 754 mmHg 76%
    08:00 +17°C° 0.1 mm 3 mps 754 mmHg 73%
    09:00 +18°C° 0.1 mm 4 mps 753 mmHg 70%
    10:00 +18°C° 0.1 mm 4 mps 753 mmHg 67%
    11:00 +19°C° 0.1 mm 5 mps 753 mmHg 64%
    12:00 +19°C° 0 mm 5 mps 753 mmHg 64%
    13:00 +19°C° 0 mm 5 mps 753 mmHg 63%
    14:00 +19°C° 0 mm 5 mps 753 mmHg 63%
    15:00 +19°C° 0 mm 5 mps 753 mmHg 66%
    16:00 +17°C° 0 mm 5 mps 752 mmHg 69%
    17:00 +17°C° 0 mm 5 mps 752 mmHg 73%
    18:00 +17°C° 0 mm 4 mps 753 mmHg 75%
    19:00 +15°C° 0 mm 4 mps 753 mmHg 78%
    20:00 +16°C° 0 mm 3 mps 753 mmHg 81%
    21:00 +16°C° 0 mm 3 mps 753 mmHg 81%
    22:00 +14°C° 0 mm 3 mps 753 mmHg 81%
    23:00 +14°C° 0 mm 3 mps 753 mmHg 81%

    10 April, Friday

    Time Temperature Precipitation Wind Pressure Humidity
    00:00 +14°C° 0.1 mm 4 mps 752 mmHg 82%
    01:00 +14°C° 0.1 mm 4 mps 752 mmHg 82%
    02:00 +14°C° 0.1 mm 4 mps 752 mmHg 83%
    03:00 +14°C° 0.3 mm 5 mps 752 mmHg 83%
    04:00 +14°C° 0.3 mm 5 mps 752 mmHg 84%
    05:00 +14°C° 0.3 mm 5 mps 752 mmHg 85%
    06:00 +14°C° 0.4 mm 6 mps 752 mmHg 81%
    07:00 +15°C° 0.4 mm 6 mps 752 mmHg 78%
    08:00 +16°C° 0.4 mm 6 mps 753 mmHg 74%
    09:00 +16°C° 0.4 mm 6 mps 753 mmHg 72%
    10:00 +17°C° 0.4 mm 7 mps 753 mmHg 70%
    11:00 +17°C° 0.4 mm 7 mps 753 mmHg 67%
    12:00 +17°C° 0.3 mm 7 mps 753 mmHg 66%
    13:00 +17°C° 0.3 mm 7 mps 753 mmHg 65%
    14:00 +18°C° 0.3 mm 7 mps 752 mmHg 64%
    15:00 +17°C° 0.2 mm 6 mps 752 mmHg 67%
    16:00 +17°C° 0.2 mm 6 mps 753 mmHg 69%
    17:00 +16°C° 0.2 mm 6 mps 753 mmHg 71%
    18:00 +16°C° 0.2 mm 5 mps 753 mmHg 74%
    19:00 +15°C° 0.2 mm 4 mps 753 mmHg 77%
    20:00 +16°C° 0.2 mm 3 mps 753 mmHg 80%
    21:00 +14°C° 0.1 mm 3 mps 753 mmHg 81%
    22:00 +14°C° 0.1 mm 3 mps 753 mmHg 82%
    23:00 +14°C° 0.1 mm 3 mps 753 mmHg 83%
    Show more